Regional Weather Roundup
Issued by NWS

Home | Current Version | Previous Version | Text Only | Print | Product List | Glossary Off
Versions: 1 2 3 4 5 6 7 8 9 10 11 12 13 14 15 16 17 18 19 20 21 22 23 24 25 26 27 28 29 30 31 32 33 34 35 36 37 38 39 40 41 42 43 44 45 46 47 48 49 50

000
ASUS43 KDTX 220701
RWRMI
MICHIGAN HOURLY REGIONAL WEATHER ROUNDUP
NATIONAL WEATHER SERVICE DETROIT/PONTIAC MI
300 AM EDT MON SEP 22 2014

NOTE: "FAIR" INDICATES FEW OR NO CLOUDS BELOW 12,000 FEET WITH NO
SIGNIFICANT WEATHER AND/OR OBSTRUCTION TO VISIBILITY.

MIZ047>049-052>055-059>063-066>070-074>076-081>083-220800-
SOUTHEAST LOWER MICHIGAN

CITY           SKY/WX    TMP DP  RH WIND       PRES   REMARKS
ADRIAN         CLOUDY    48  38  68 N9        30.09R
ALMA           CLOUDY    47  40  77 NW5       30.10S
ANN ARBOR      CLOUDY    48  37  65 NW7       30.06R
BAD AXE        CLOUDY    47  42  81 NW7       30.02S
CARO           CLOUDY    48  40  73 NW9G16    30.04S
DETROIT CITY   CLOUDY    51  39  63 NW12      30.05R
DETROIT        CLOUDY    49  39  68 NW12      30.06R
FLINT          CLOUDY    49  38  65 NW10      30.07S
GROSSE ILE     CLOUDY    50  43  76 NW12G17   30.04R
HILLSDALE      CLOUDY    47  40  76 N8        30.09S
HOWELL         CLOUDY    46  39  79 NW8       30.07S

CITY           SKY/WX    TMP DP  RH WIND       PRES   REMARKS
JACKSON        CLOUDY    46  39  76 N7        30.09R
LAMBERTVILLE   CLOUDY    50  39  66 NW6       30.08R
LANSING        CLOUDY    47  38  71 NW7       30.10S
LAPEER         CLOUDY    46  40  80 NW7       30.04S
MASON          CLOUDY    46  38  74 N8        30.09S
MONROE         CLOUDY    48  41  76 NW9       30.05R
MT. CLEMENS    CLOUDY    49  41  76 W13       30.01R
PONTIAC        CLOUDY    47  38  71 NW8       30.04R
PORT HOPE        N/A     52  41  66 VRB5      29.99R
PORT HURON     CLOUDY    48  43  81 NW10G16   30.01S
TRI CITIES     CLOUDY    49  38  65 N12       30.08S
TROY           CLOUDY    50  39  67 NW6       30.06S
SAGINAW HB     CLOUDY    48  37  66 NW10G17   30.06S
$$
MIZ043>046-050>051-056>058-064>065-071>073-077>080-220800-
SOUTHWEST LOWER MICHIGAN

CITY           SKY/WX    TMP DP  RH WIND       PRES   REMARKS
BATTLE CREEK   CLOUDY    47  37  68 N10       30.12R
BENTON HARBOR  CLOUDY    48  41  76 NE5       30.14S
BIG RAPIDS     CLOUDY    46  42  87 NW3       30.11S
COLDWATER      CLOUDY    47  39  72 N8        30.11S
FREMONT        CLOUDY    46  38  75 N3        30.13S
HOLLAND        CLOUDY    49  40  71 N5        30.16R
GRAND RAPIDS   CLOUDY    48  39  71 NW8       30.13S
IONIA          CLOUDY    47  40  77 NW5       30.11R
KALAMAZOO      CLOUDY    47  36  65 N13       30.13R
LUDINGTON      CLOUDY    49  44  80 N3        30.13F
MARSHALL       CLOUDY    46  37  73 CALM      30.10S
MOUNT PLEASANT CLOUDY    47  40  79 CALM      30.09S
MUSKEGON       CLOUDY    49  39  68 N3        30.15R
SOUTH HAVEN    CLOUDY    49  40  72 N7        30.15R
$$
MIZ016>042-220800-
NORTHERN LOWER MICHIGAN

CITY           SKY/WX    TMP DP  RH WIND       PRES   REMARKS
ALPENA         CLOUDY    47  39  74 NW7       30.03R
BEAVER ISLAND  MOCLDY    46  39  76 N6        30.10S
BELLAIRE       CLOUDY    47  41  78 NW3       30.08F
CADILLAC       CLOUDY    44  40  86 NW6       30.08S
CHARLEVOIX     CLOUDY    49  40  69 N13G18    30.12S
FRANKFORT      MOCLDY    49  39  68 N10       30.12S
GAYLORD        CLOUDY    43  39  86 NW5       30.06R
GRAYLING       CLOUDY    46  41  83 W5        30.08R
HARBOR SPRINGS MOCLDY    45  38  77 CALM      30.08S
HOUGHTON LAKE  MOCLDY    44  39  82 NW8       30.07S
MANISTEE       MOCLDY    46  37  71 N6        30.13S
OSCODA         CLOUDY    46  42  86 NW5       30.03R
PELLSTON       MOCLDY    45  37  73 N9        30.08S
ROGERS CITY    CLOUDY    47  39  74 N13       30.05S
TRAVERSE CITY  CLOUDY    49  39  68 NW7G18    30.09S
$$
MIZ007>008-015-220800-
EASTERN UPPER MICHIGAN

CITY           SKY/WX    TMP DP  RH WIND       PRES   REMARKS
KINROSS        CLOUDY    45  37  76 NW6       30.06S
MACKINAC ISLAN CLOUDY    46  36  70 N7G16     30.06S
NEWBERRY       PTCLDY    39  36  90 NW7       30.08S WCI  34
S. S. MARIE    CLOUDY    45  35  68 N10       30.06R
$$
MIZ004>006-011>014-085-220800-
CENTRAL UPPER MICHIGAN

CITY           SKY/WX    TMP DP  RH WIND       PRES   REMARKS
MANISTIQUE     CLEAR     36  35  96 W5        30.11S WCI  32
ESCANABA       CLEAR     37  36  93 NW3       30.14S
MENOMINEE      CLEAR     39  37  93 NW3       30.15S
SAWYER-GWINN   CLEAR     35  34  95 CALM      30.13R
$$
MIZ001>003-009>011-084-220800-
WESTERN UPPER MICHIGAN

CITY           SKY/WX    TMP DP  RH WIND       PRES   REMARKS
IRON MOUNTAIN  CLEAR     35  34  96 CALM      30.14R
HOUGHTON       CLEAR     38  35  89 CALM      30.11F
COPPER HARBOR    N/A     40  36  86 VRB3      30.11S
IRONWOOD       CLEAR     39  39 100 W5        30.14F
$$

ABBREVIATIONS USED IN REMARKS
   TC - TEMPERATURE IN CELSIUS
  WCI - WIND CHILL INDEX
   HX - HEAT INDEX
  VSB - VISIBILITY



USA.gov is the U.S. government's official web portal to all federal, state and local government web resources and services.